QPF
0.03 0.04 0.06 0.05 0.05 0.07 0.06 0.08 0.06 0.04 0.03 0.03 0.03 0.02 0.01 0.01 0.01 0.01 0.01 0.01 0.01 0.00 0.00 0.01 0.01 0.01 0.02 0.03 0.06 0.09 0.11 0.15 0.17 0.16 0.13 0.09 0.06 0.03 0.02 0.01 0.01 0.01 0.00 0.00
0.03 0.04 0.04 0.04 0.03 0.06 0.06 0.08 0.07 0.03 0.02 0.03 0.02 0.01 0.00 0.01 0.01 0.01 0.01 0.00 0.00 0.00 0.01 0.01 0.01 0.02 0.02 0.02 0.04 0.07 0.10 0.13 0.17 0.17 0.15 0.10 0.06 0.04 0.02 0.01 0.01 0.01 0.00 0.00
0.02 0.02 0.03 0.05 0.05 0.07 0.06 0.06 0.05 0.03 0.02 0.03 0.03 0.02 0.00 0.00 0.01 0.01 0.01 0.00 0.00 0.00 0.01 0.01 0.01 0.02 0.03 0.02 0.04 0.05 0.08 0.12 0.13 0.16 0.17 0.15 0.11 0.07 0.04 0.02 0.01 0.01 0.01 0.00
0.01 0.01 0.02 0.04 0.04 0.05 0.04 0.02 0.02 0.03 0.05 0.05 0.04 0.04 0.01 0.00 0.01 0.01 0.00 0.00 0.01 0.00 0.00 0.01 0.01 0.01 0.02 0.02 0.02 0.04 0.06 0.11 0.14 0.15 0.17 0.16 0.14 0.08 0.04 0.02 0.01 0.01 0.01 0.01
0.01 0.01 0.02 0.03 0.03 0.03 0.03 0.01 0.02 0.03 0.05 0.06 0.04 0.03 0.01 0.01 0.01 0.01 0.00 0.00 0.01 0.01 0.01 0.01 0.01 0.01 0.02 0.02 0.04 0.04 0.05 0.08 0.14 0.14 0.14 0.16 0.12 0.09 0.05 0.03 0.03 0.02 0.01 0.01
0.01 0.01 0.03 0.03 0.02 0.02 0.02 0.02 0.02 0.02 0.05 0.05 0.02 0.02 0.02 0.02 0.02 0.01 0.00 0.01 0.01 0.02 0.02 0.01 0.01 0.01 0.02 0.03 0.05 0.05 0.05 0.07 0.12 0.16 0.14 0.15 0.12 0.09 0.08 0.04 0.03 0.03 0.02 0.01
0.01 0.02 0.02 0.02 0.02 0.02 0.02 0.03 0.05 0.05 0.04 0.02 0.01 0.02 0.03 0.03 0.01 0.01 0.01 0.01 0.01 0.02 0.02 0.02 0.03 0.04 0.04 0.04 0.04 0.04 0.05 0.06 0.08 0.14 0.18 0.15 0.13 0.09 0.06 0.04 0.02 0.02 0.02 0.01
0.02 0.02 0.02 0.02 0.03 0.04 0.02 0.03 0.05 0.05 0.03 0.01 0.01 0.01 0.04 0.03 0.01 0.00 0.00 0.01 0.01 0.01 0.02 0.02 0.02 0.03 0.04 0.05 0.05 0.04 0.04 0.06 0.06 0.08 0.17 0.20 0.15 0.10 0.05 0.03 0.02 0.01 0.01 0.01
0.02 0.01 0.01 0.01 0.02 0.02 0.02 0.03 0.03 0.04 0.03 0.02 0.01 0.02 0.04 0.03 0.01 0.01 0.00 0.00 0.00 0.01 0.02 0.02 0.01 0.01 0.03 0.05 0.05 0.04 0.04 0.05 0.06 0.04 0.09 0.22 0.24 0.13 0.06 0.03 0.02 0.02 0.01 0.01
0.02 0.02 0.00 0.00 0.02 0.02 0.02 0.02 0.03 0.04 0.03 0.02 0.01 0.03 0.05 0.04 0.03 0.02 0.01 0.01 0.00 0.01 0.02 0.01 0.01 0.01 0.02 0.03 0.04 0.05 0.04 0.05 0.07 0.04 0.04 0.12 0.28 0.25 0.09 0.04 0.03 0.02 0.01 0.01
0.01 0.02 0.01 0.00 0.01 0.02 0.02 0.02 0.03 0.04 0.03 0.04 0.03 0.05 0.05 0.04 0.03 0.02 0.01 0.01 0.01 0.00 0.01 0.01 0.00 0.00 0.01 0.02 0.03 0.04 0.04 0.05 0.07 0.06 0.04 0.06 0.15 0.28 0.20 0.08 0.04 0.02 0.01 0.01
0.01 0.03 0.02 0.00 0.01 0.01 0.01 0.02 0.03 0.05 0.04 0.03 0.03 0.03 0.03 0.02 0.02 0.01 0.01 0.01 0.01 0.00 0.01 0.01 0.01 0.00 0.01 0.01 0.02 0.02 0.03 0.03 0.05 0.06 0.05 0.06 0.08 0.16 0.25 0.15 0.07 0.03 0.02 0.02
0.04 0.06 0.03 0.01 0.00 0.01 0.01 0.01 0.02 0.03 0.04 0.03 0.03 0.02 0.02 0.01 0.01 0.00 0.01 0.01 0.01 0.00 0.00 0.01 0.01 0.00 0.00 0.01 0.01 0.01 0.01 0.02 0.03 0.06 0.06 0.07 0.07 0.09 0.16 0.19 0.11 0.06 0.03 0.02
0.08 0.08 0.03 0.01 0.00 0.01 0.01 0.00 0.01 0.03 0.04 0.02 0.01 0.01 0.01 0.01 0.01 0.00 0.01 0.01 0.01 0.01 0.00 0.01 0.01 0.00 0.00 0.00 0.01 0.01 0.00 0.01 0.03 0.06 0.07 0.06 0.06 0.07 0.08 0.12 0.13 0.09 0.05 0.03
0.06 0.06 0.01 0.00 0.00 0.01 0.01 0.01 0.01 0.02 0.02 0.02 0.01 0.01 0.01 0.01 0.01 0.01 0.01 0.02 0.01 0.01 0.01 0.00 0.00 0.00 0.00 0.00 0.00 0.01 0.00 0.00 0.02 0.06 0.07 0.05 0.05 0.05 0.06 0.08 0.10 0.10 0.08 0.04
0.04 0.04 0.02 0.01 0.00 0.01 0.01 0.01 0.01 0.01 0.01 0.01 0.01 0.01 0.01 0.01 0.01 0.01 0.02 0.02 0.02 0.02 0.02 0.01 0.00 0.00 0.00 0.00 0.00 0.01 0.00 0.00 0.02 0.05 0.07 0.04 0.04 0.05 0.05 0.06 0.06 0.07 0.08 0.07
0.05 0.04 0.04 0.02 0.00 0.01 0.02 0.03 0.02 0.02 0.01 0.02 0.02 0.02 0.01 0.01 0.01 0.01 0.02 0.02 0.02 0.03 0.02 0.01 0.01 0.00 0.00 0.00 0.00 0.01 0.01 0.01 0.02 0.04 0.06 0.04 0.03 0.04 0.04 0.05 0.05 0.05 0.05 0.06
0.04 0.05 0.06 0.03 0.01 0.02 0.01 0.01 0.01 0.02 0.02 0.02 0.02 0.02 0.02 0.01 0.01 0.02 0.03 0.04 0.04 0.03 0.02 0.01 0.01 0.01 0.00 0.00 0.01 0.01 0.01 0.01 0.02 0.04 0.05 0.03 0.03 0.04 0.04 0.05 0.05 0.05 0.04 0.03
0.02 0.05 0.06 0.05 0.03 0.01 0.01 0.02 0.02 0.03 0.03 0.01 0.01 0.01 0.02 0.01 0.01 0.01 0.01 0.02 0.03 0.03 0.02 0.02 0.01 0.01 0.00 0.00 0.01 0.01 0.01 0.02 0.03 0.04 0.04 0.02 0.02 0.03 0.05 0.05 0.05 0.05 0.04 0.03
0.01 0.03 0.07 0.05 0.04 0.01 0.01 0.01 0.02 0.02 0.04 0.02 0.01 0.02 0.02 0.02 0.02 0.02 0.01 0.02 0.03 0.02 0.03 0.03 0.02 0.01 0.01 0.00 0.01 0.01 0.02 0.02 0.03 0.04 0.03 0.02 0.02 0.02 0.03 0.04 0.05 0.06 0.05 0.04
0.01 0.03 0.05 0.04 0.04 0.01 0.01 0.01 0.02 0.03 0.04 0.02 0.02 0.03 0.02 0.02 0.03 0.03 0.03 0.04 0.03 0.02 0.02 0.03 0.03 0.02 0.01 0.01 0.01 0.01 0.02 0.02 0.03 0.02 0.02 0.02 0.02 0.02 0.02 0.03 0.05 0.05 0.06 0.05
0.00 0.01 0.02 0.03 0.04 0.02 0.01 0.01 0.02 0.03 0.02 0.01 0.01 0.02 0.02 0.02 0.01 0.02 0.04 0.05 0.04 0.03 0.02 0.02 0.02 0.02 0.01 0.01 0.01 0.01 0.02 0.02 0.03 0.03 0.03 0.02 0.03 0.03 0.03 0.03 0.04 0.05 0.05 0.06
0.00 0.00 0.01 0.01 0.01 0.01 0.00 0.01 0.01 0.02 0.01 0.01 0.01 0.01 0.01 0.01 0.01 0.02 0.04 0.05 0.05 0.05 0.05 0.03 0.02 0.02 0.02 0.02 0.02 0.02 0.02 0.02 0.03 0.04 0.04 0.03 0.04 0.04 0.03 0.03 0.04 0.05 0.05 0.05
0.00 0.00 0.00 0.01 0.00 0.00 0.00 0.01 0.01 0.01 0.01 0.01 0.01 0.01 0.01 0.01 0.01 0.02 0.03 0.04 0.05 0.06 0.06 0.04 0.02 0.02 0.02 0.02 0.03 0.03 0.02 0.02 0.02 0.04 0.05 0.04 0.04 0.05 0.04 0.03 0.03 0.04 0.04 0.04
0.00 0.01 0.01 0.01 0.00 0.00 0.00 0.00 0.01 0.01 0.01 0.01 0.01 0.01 0.01 0.01 0.01 0.01 0.03 0.04 0.05 0.07 0.07 0.05 0.04 0.03 0.03 0.03 0.04 0.04 0.03 0.03 0.03 0.03 0.05 0.06 0.05 0.04 0.04 0.04 0.03 0.03 0.03 0.04
0.00 0.00 0.01 0.01 0.00 0.01 0.00 0.00 0.00 0.00 0.00 0.01 0.01 0.01 0.01 0.00 0.00 0.01 0.02 0.04 0.05 0.06 0.07 0.06 0.05 0.03 0.03 0.03 0.04 0.05 0.04 0.03 0.03 0.03 0.04 0.06 0.06 0.05 0.05 0.04 0.05 0.05 0.04 0.04
MSLP
1015.89 1015.66 1015.46 1015.28 1015.12 1014.94 1014.72 1014.43 1014.04 1013.54 1012.95 1012.29 1011.59 1010.89 1010.22 1009.61 1009.05 1008.53 1008.04 1007.53 1006.98 1006.38 1005.74 1005.06 1004.40 1003.81 1003.32 1002.99 1002.83 1002.87 1003.09 1003.48 1003.99 1004.60 1005.27 1006.00 1006.76 1007.55 1008.37 1009.21 1010.06 1010.90 1011.72 1012.49
1015.58 1015.35 1015.19 1015.09 1015.01 1014.93 1014.79 1014.55 1014.17 1013.65 1013.01 1012.27 1011.49 1010.73 1010.02 1009.40 1008.88 1008.43 1008.03 1007.62 1007.17 1006.64 1006.03 1005.35 1004.65 1003.98 1003.40 1002.97 1002.71 1002.66 1002.81 1003.13 1003.59 1004.15 1004.79 1005.48 1006.20 1006.97 1007.77 1008.60 1009.45 1010.31 1011.15 1011.95
1015.28 1015.07 1014.96 1014.93 1014.95 1014.95 1014.89 1014.70 1014.33 1013.77 1013.05 1012.22 1011.33 1010.47 1009.69 1009.05 1008.55 1008.18 1007.88 1007.60 1007.27 1006.85 1006.31 1005.67 1004.96 1004.25 1003.59 1003.05 1002.69 1002.53 1002.58 1002.80 1003.18 1003.67 1004.25 1004.88 1005.56 1006.29 1007.06 1007.88 1008.73 1009.61 1010.47 1011.30
1015.03 1014.83 1014.76 1014.81 1014.91 1015.00 1015.01 1014.85 1014.47 1013.87 1013.05 1012.09 1011.07 1010.08 1009.22 1008.53 1008.04 1007.73 1007.54 1007.39 1007.21 1006.94 1006.52 1005.95 1005.28 1004.55 1003.84 1003.22 1002.75 1002.47 1002.39 1002.51 1002.78 1003.18 1003.67 1004.24 1004.86 1005.55 1006.29 1007.09 1007.94 1008.82 1009.70 1010.56
1014.84 1014.65 1014.63 1014.73 1014.91 1015.07 1015.14 1015.00 1014.60 1013.92 1013.00 1011.90 1010.73 1009.60 1008.61 1007.86 1007.35 1007.09 1007.00 1006.99 1006.98 1006.86 1006.59 1006.14 1005.54 1004.83 1004.10 1003.42 1002.86 1002.47 1002.27 1002.25 1002.41 1002.70 1003.10 1003.59 1004.15 1004.78 1005.49 1006.27 1007.11 1007.99 1008.88 1009.75
1014.71 1014.54 1014.55 1014.70 1014.94 1015.16 1015.26 1015.13 1014.70 1013.95 1012.91 1011.67 1010.35 1009.06 1007.95 1007.11 1006.57 1006.33 1006.32 1006.44 1006.58 1006.63 1006.53 1006.22 1005.72 1005.07 1004.35 1003.64 1003.01 1002.51 1002.20 1002.06 1002.09 1002.26 1002.56 1002.96 1003.44 1004.02 1004.69 1005.43 1006.26 1007.13 1008.03 1008.91
1014.65 1014.49 1014.52 1014.71 1014.99 1015.25 1015.38 1015.25 1014.79 1013.97 1012.83 1011.46 1009.99 1008.56 1007.32 1006.38 1005.79 1005.55 1005.58 1005.80 1006.07 1006.29 1006.34 1006.18 1005.81 1005.25 1004.57 1003.86 1003.18 1002.60 1002.18 1001.92 1001.82 1001.87 1002.05 1002.35 1002.76 1003.27 1003.89 1004.61 1005.41 1006.27 1007.17 1008.07
1014.62 1014.48 1014.53 1014.75 1015.06 1015.34 1015.48 1015.35 1014.86 1013.99 1012.77 1011.30 1009.71 1008.17 1006.81 1005.77 1005.12 1004.84 1004.89 1005.16 1005.53 1005.87 1006.06 1006.05 1005.80 1005.35 1004.74 1004.04 1003.35 1002.71 1002.19 1001.82 1001.59 1001.51 1001.57 1001.76 1002.08 1002.52 1003.09 1003.77 1004.55 1005.41 1006.31 1007.20
1014.59 1014.47 1014.54 1014.77 1015.09 1015.38 1015.52 1015.38 1014.87 1013.98 1012.72 1011.19 1009.53 1007.90 1006.45 1005.33 1004.60 1004.27 1004.30 1004.59 1005.00 1005.42 1005.73 1005.83 1005.71 1005.36 1004.83 1004.18 1003.49 1002.82 1002.22 1001.74 1001.39 1001.18 1001.11 1001.18 1001.40 1001.76 1002.27 1002.91 1003.67 1004.52 1005.41 1006.32
1014.50 1014.40 1014.48 1014.71 1015.01 1015.29 1015.42 1015.27 1014.76 1013.86 1012.60 1011.06 1009.38 1007.71 1006.21 1005.03 1004.23 1003.84 1003.82 1004.08 1004.50 1004.96 1005.34 1005.54 1005.52 1005.28 1004.84 1004.26 1003.59 1002.90 1002.24 1001.66 1001.19 1000.84 1000.63 1000.58 1000.68 1000.96 1001.40 1002.01 1002.74 1003.58 1004.48 1005.40
1014.30 1014.20 1014.27 1014.47 1014.75 1014.99 1015.09 1014.92 1014.42 1013.54 1012.31 1010.80 1009.15 1007.50 1006.00 1004.79 1003.95 1003.50 1003.42 1003.62 1004.02 1004.47 1004.89 1005.16 1005.23 1005.09 1004.75 1004.24 1003.62 1002.92 1002.22 1001.56 1000.97 1000.49 1000.14 999.95 999.93 1000.11 1000.48 1001.04 1001.76 1002.60 1003.51 1004.45
1013.91 1013.81 1013.85 1014.00 1014.20 1014.38 1014.43 1014.23 1013.72 1012.88 1011.71 1010.28 1008.72 1007.14 1005.69 1004.50 1003.64 1003.15 1003.01 1003.15 1003.50 1003.93 1004.36 1004.68 1004.83 1004.79 1004.55 1004.13 1003.56 1002.90 1002.17 1001.44 1000.74 1000.12 999.63 999.29 999.15 999.22 999.52 1000.03 1000.73 1001.57 1002.51 1003.48
1013.30 1013.18 1013.15 1013.22 1013.33 1013.41 1013.37 1013.13 1012.62 1011.81 1010.72 1009.41 1007.97 1006.52 1005.17 1004.05 1003.22 1002.71 1002.53 1002.62 1002.91 1003.32 1003.74 1004.10 1004.32 1004.38 1004.25 1003.93 1003.44 1002.81 1002.08 1001.29 1000.50 999.76 999.13 998.65 998.37 998.33 998.55 999.01 999.69 1000.54 1001.50 1002.51
1012.47 1012.29 1012.18 1012.14 1012.12 1012.08 1011.93 1011.62 1011.09 1010.32 1009.33 1008.15 1006.88 1005.59 1004.39 1003.39 1002.63 1002.15 1001.95 1002.01 1002.26 1002.63 1003.05 1003.44 1003.73 1003.88 1003.86 1003.64 1003.25 1002.68 1001.96 1001.14 1000.28 999.43 998.66 998.04 997.63 997.47 997.60 998.01 998.67 999.52 1000.51 1001.57
1011.42 1011.18 1010.98 1010.80 1010.64 1010.45 1010.18 1009.79 1009.23 1008.51 1007.61 1006.59 1005.50 1004.41 1003.40 1002.54 1001.89 1001.47 1001.30 1001.34 1001.56 1001.91 1002.32 1002.73 1003.08 1003.32 1003.41 1003.31 1003.01 1002.51 1001.83 1001.00 1000.08 999.14 998.26 997.51 996.96 996.69 996.73 997.08 997.70 998.56 999.58 1000.68
1010.24 1009.92 1009.61 1009.31 1009.00 1008.67 1008.28 1007.81 1007.23 1006.54 1005.75 1004.88 1003.99 1003.11 1002.31 1001.63 1001.11 1000.78 1000.64 1000.68 1000.88 1001.21 1001.61 1002.03 1002.43 1002.74 1002.92 1002.93 1002.74 1002.32 1001.69 1000.87 999.92 998.91 997.93 997.06 996.40 996.01 995.96 996.23 996.82 997.67 998.71 999.85
1009.00 1008.62 1008.21 1007.80 1007.37 1006.91 1006.42 1005.88 1005.29 1004.65 1003.96 1003.26 1002.56 1001.90 1001.30 1000.80 1000.42 1000.18 1000.09 1000.13 1000.31 1000.60 1000.97 1001.39 1001.81 1002.18 1002.43 1002.53 1002.43 1002.10 1001.53 1000.74 999.78 998.73 997.67 996.70 995.93 995.44 995.28 995.48 996.01 996.84 997.88 999.05
1007.80 1007.37 1006.90 1006.41 1005.90 1005.37 1004.81 1004.24 1003.66 1003.08 1002.51 1001.95 1001.44 1000.97 1000.56 1000.22 999.97 999.80 999.74 999.77 999.90 1000.14 1000.46 1000.84 1001.25 1001.64 1001.95 1002.12 1002.10 1001.85 1001.34 1000.59 999.65 998.57 997.46 996.41 995.54 994.95 994.69 994.80 995.26 996.04 997.07 998.25
1006.72 1006.27 1005.79 1005.27 1004.74 1004.18 1003.61 1003.05 1002.51 1002.00 1001.54 1001.12 1000.76 1000.46 1000.20 999.99 999.83 999.70 999.63 999.62 999.69 999.84 1000.08 1000.39 1000.76 1001.13 1001.46 1001.68 1001.73 1001.55 1001.11 1000.41 999.49 998.41 997.26 996.15 995.20 994.51 994.15 994.16 994.55 995.27 996.26 997.43
1005.81 1005.39 1004.93 1004.45 1003.94 1003.41 1002.88 1002.37 1001.90 1001.47 1001.11 1000.82 1000.58 1000.40 1000.25 1000.11 999.98 999.86 999.75 999.66 999.63 999.67 999.79 1000.01 1000.31 1000.65 1000.97 1001.21 1001.31 1001.19 1000.81 1000.17 999.29 998.22 997.05 995.90 994.88 994.10 993.63 993.55 993.84 994.48 995.42 996.58
1005.10 1004.73 1004.34 1003.93 1003.50 1003.05 1002.61 1002.18 1001.79 1001.45 1001.18 1000.97 1000.82 1000.70 1000.60 1000.49 1000.35 1000.18 999.99 999.80 999.64 999.55 999.55 999.67 999.88 1000.16 1000.46 1000.71 1000.84 1000.77 1000.46 999.87 999.03 997.99 996.82 995.64 994.56 993.69 993.14 992.95 993.14 993.71 994.59 995.71
1004.57 1004.28 1003.99 1003.68 1003.36 1003.03 1002.68 1002.35 1002.04 1001.78 1001.57 1001.42 1001.31 1001.21 1001.10 1000.96 1000.77 1000.52 1000.23 999.92 999.64 999.42 999.30 999.30 999.43 999.66 999.93 1000.19 1000.34 1000.32 1000.06 999.53 998.74 997.72 996.56 995.36 994.24 993.30 992.66 992.38 992.48 992.96 993.78 994.88
1004.20 1004.00 1003.81 1003.63 1003.42 1003.20 1002.96 1002.71 1002.48 1002.28 1002.11 1001.96 1001.84 1001.72 1001.57 1001.36 1001.08 1000.74 1000.34 999.92 999.52 999.19 998.97 998.89 998.96 999.14 999.40 999.65 999.83 999.85 999.64 999.16 998.41 997.42 996.27 995.07 993.91 992.92 992.21 991.85 991.88 992.30 993.07 994.15
1003.97 1003.85 1003.76 1003.67 1003.57 1003.45 1003.29 1003.12 1002.94 1002.76 1002.59 1002.42 1002.26 1002.07 1001.84 1001.55 1001.18 1000.74 1000.25 999.74 999.26 998.85 998.57 998.44 998.47 998.63 998.88 999.14 999.34 999.38 999.20 998.76 998.04 997.08 995.95 994.75 993.57 992.56 991.81 991.41 991.39 991.77 992.52 993.58
1003.84 1003.78 1003.76 1003.76 1003.73 1003.68 1003.58 1003.45 1003.28 1003.09 1002.89 1002.68 1002.45 1002.18 1001.86 1001.48 1001.02 1000.51 999.95 999.38 998.86 998.43 998.12 997.98 998.00 998.16 998.40 998.67 998.87 998.92 998.75 998.33 997.63 996.69 995.58 994.38 993.22 992.21 991.45 991.04 991.02 991.40 992.16 993.24
1003.80 1003.78 1003.80 1003.84 1003.86 1003.84 1003.77 1003.64 1003.47 1003.25 1003.00 1002.72 1002.40 1002.05 1001.65 1001.18 1000.67 1000.10 999.51 998.93 998.41 997.99 997.70 997.57 997.60 997.76 997.99 998.24 998.42 998.46 998.27 997.83 997.14 996.20 995.11 993.94 992.81 991.83 991.13 990.76 990.78 991.21 992.02 993.16
Thickness
5512 5508 5508 5506 5502 5501 5501 5502 5508 5517 5519 5516 5523 5532 5543 5549 5550 5557 5566 5575 5584 5593 5602 5608 5614 5621 5628 5635 5642 5648 5651 5655 5657 5659 5660 5660 5663 5665 5665 5666 5666 5665 5665 5663
5512 5510 5508 5502 5500 5497 5496 5495 5502 5513 5516 5512 5518 5528 5541 5546 5549 5556 5563 5571 5580 5588 5594 5601 5607 5614 5621 5629 5636 5642 5647 5650 5653 5656 5658 5658 5658 5660 5662 5662 5662 5661 5661 5660
5504 5508 5502 5496 5496 5494 5495 5495 5497 5501 5507 5511 5512 5525 5541 5548 5550 5553 5559 5566 5574 5582 5589 5596 5602 5609 5616 5624 5631 5637 5643 5646 5649 5651 5652 5651 5651 5653 5655 5657 5658 5658 5657 5657
5507 5504 5496 5494 5493 5488 5492 5498 5494 5493 5494 5504 5508 5514 5542 5546 5549 5552 5556 5563 5569 5576 5583 5589 5597 5604 5612 5620 5626 5632 5637 5640 5644 5647 5649 5650 5652 5654 5658 5658 5656 5655 5654 5653
5504 5499 5493 5491 5491 5485 5488 5492 5491 5492 5492 5494 5509 5507 5536 5544 5545 5551 5556 5561 5567 5573 5578 5585 5591 5599 5607 5614 5619 5626 5631 5635 5639 5642 5646 5648 5650 5654 5655 5653 5652 5651 5650 5650
5499 5495 5489 5488 5488 5485 5486 5488 5494 5496 5492 5492 5511 5512 5531 5538 5541 5546 5552 5557 5561 5567 5573 5580 5587 5593 5600 5607 5612 5619 5625 5629 5633 5637 5642 5646 5648 5650 5651 5651 5651 5649 5649 5648
5498 5496 5489 5483 5482 5486 5483 5479 5485 5491 5494 5506 5515 5513 5525 5532 5536 5540 5545 5550 5556 5561 5567 5573 5581 5587 5594 5601 5606 5613 5620 5625 5630 5634 5638 5643 5646 5648 5649 5651 5650 5649 5648 5648
5480 5490 5488 5480 5474 5473 5478 5474 5472 5479 5496 5508 5512 5516 5527 5530 5533 5537 5541 5545 5550 5556 5560 5566 5573 5581 5588 5595 5602 5608 5615 5622 5627 5631 5635 5640 5643 5645 5648 5650 5651 5651 5651 5649
5468 5479 5484 5478 5473 5470 5473 5475 5474 5470 5482 5487 5512 5520 5523 5526 5528 5531 5536 5541 5544 5549 5554 5559 5566 5573 5581 5588 5596 5604 5610 5617 5623 5628 5632 5637 5640 5644 5647 5648 5650 5650 5650 5648
5456 5458 5477 5475 5472 5471 5469 5467 5466 5466 5472 5489 5510 5518 5518 5517 5519 5523 5528 5532 5537 5542 5548 5554 5560 5567 5574 5582 5590 5598 5605 5613 5619 5624 5628 5634 5639 5642 5644 5646 5648 5648 5648 5646
5452 5447 5466 5470 5467 5465 5462 5460 5458 5460 5465 5476 5493 5514 5513 5510 5512 5515 5520 5524 5529 5534 5539 5546 5553 5560 5568 5576 5583 5591 5599 5606 5612 5618 5625 5630 5634 5639 5641 5643 5646 5646 5646 5644
5449 5446 5455 5467 5468 5460 5456 5455 5452 5450 5455 5463 5476 5501 5510 5508 5508 5509 5514 5518 5523 5527 5532 5538 5545 5553 5560 5568 5576 5584 5592 5600 5607 5614 5619 5626 5631 5635 5638 5641 5643 5643 5643 5643
5441 5438 5448 5470 5464 5454 5447 5447 5445 5441 5444 5456 5467 5495 5508 5504 5502 5503 5506 5511 5517 5521 5526 5532 5538 5546 5552 5560 5568 5577 5585 5593 5602 5608 5614 5621 5626 5631 5635 5638 5640 5640 5640 5639
5441 5437 5439 5451 5458 5448 5441 5445 5443 5436 5441 5457 5473 5487 5499 5496 5495 5497 5500 5505 5509 5514 5519 5524 5530 5537 5545 5553 5562 5570 5578 5586 5595 5602 5608 5615 5622 5628 5633 5635 5636 5636 5636 5635
5434 5436 5438 5443 5446 5442 5441 5444 5446 5442 5445 5449 5470 5477 5487 5487 5487 5489 5493 5498 5503 5507 5511 5516 5521 5529 5537 5546 5555 5563 5571 5579 5587 5596 5604 5612 5619 5624 5627 5629 5631 5632 5632 5631
5426 5426 5430 5438 5444 5441 5442 5451 5451 5449 5449 5452 5458 5469 5479 5480 5479 5482 5486 5490 5494 5500 5505 5509 5515 5521 5530 5539 5548 5556 5564 5572 5580 5590 5598 5606 5612 5617 5620 5624 5626 5626 5626 5625
5421 5416 5421 5440 5443 5438 5450 5459 5456 5454 5456 5453 5455 5466 5471 5471 5473 5475 5478 5481 5485 5491 5497 5502 5508 5516 5524 5532 5541 5549 5558 5566 5574 5583 5591 5598 5604 5609 5614 5617 5619 5620 5621 5619
5416 5411 5413 5424 5429 5428 5465 5459 5453 5451 5454 5452 5453 5458 5460 5462 5466 5469 5472 5475 5479 5484 5490 5496 5503 5511 5518 5526 5534 5543 5552 5560 5568 5575 5583 5590 5596 5602 5607 5610 5612 5614 5614 5614
5417 5409 5410 5413 5420 5440 5457 5450 5442 5440 5448 5449 5447 5451 5452 5454 5459 5469 5469 5468 5471 5476 5482 5489 5497 5504 5512 5520 5528 5536 5545 5554 5561 5568 5576 5582 5589 5595 5600 5603 5606 5608 5608 5608
5411 5404 5404 5408 5408 5429 5456 5443 5438 5436 5441 5445 5439 5440 5441 5443 5450 5464 5462 5461 5466 5470 5475 5482 5490 5498 5506 5514 5522 5530 5539 5546 5553 5561 5568 5575 5581 5588 5593 5597 5599 5600 5602 5602
5404 5399 5399 5405 5409 5432 5443 5432 5428 5427 5438 5434 5432 5432 5432 5434 5438 5446 5450 5454 5458 5463 5469 5476 5484 5493 5500 5507 5514 5523 5532 5539 5546 5554 5561 5567 5574 5580 5585 5588 5591 5592 5593 5593
5416 5410 5404 5405 5405 5425 5434 5421 5420 5426 5426 5424 5425 5425 5426 5429 5433 5437 5441 5446 5451 5457 5463 5470 5478 5487 5495 5502 5508 5517 5525 5532 5540 5546 5553 5560 5566 5571 5575 5579 5581 5583 5584 5584
5415 5420 5420 5417 5429 5436 5426 5420 5418 5415 5415 5416 5417 5418 5418 5421 5426 5430 5434 5439 5444 5450 5456 5463 5471 5481 5489 5496 5502 5510 5518 5525 5532 5539 5545 5551 5556 5562 5567 5570 5572 5574 5576 5577
5416 5410 5405 5407 5422 5423 5417 5414 5410 5407 5406 5407 5408 5409 5410 5413 5418 5422 5427 5432 5437 5443 5449 5456 5464 5473 5482 5489 5495 5502 5510 5517 5524 5531 5536 5541 5547 5552 5557 5560 5564 5567 5569 5570
5414 5402 5399 5403 5413 5411 5411 5407 5404 5402 5401 5401 5402 5402 5403 5406 5411 5415 5419 5424 5429 5435 5441 5448 5456 5465 5474 5481 5487 5495 5501 5508 5514 5522 5527 5532 5537 5542 5547 5551 5555 5559 5563 5566
5409 5401 5397 5405 5411 5403 5406 5403 5398 5394 5394 5394 5394 5396 5398 5399 5403 5407 5412 5417 5421 5427 5434 5441 5449 5457 5465 5472 5479 5485 5492 5498 5505 5512 5518 5523 5527 5532 5537 5540 5541 5545 5549 5551